Location: Cherryland
(37.6794°N, 122.1033°W)
Time: 23:59:24
(UTC+00:00)

COSMOS 2455 - Pass Details

Date: 14 December 2025
Orbit: 898 x 910 km, 67.1° (Epoch: 14 January)

Event Time Altitude Azimuth Distance (km) Brightness Sun altitude
Exits shadow 13:01:29 24° 208° (SSW) 1,779 4.2 -25.8°
Drops below altitude 10° 13:04:12 10° 188° (S) 2,578 5.2 -25.2°
Sets 13:06:54 0° 180° (S) 3,513 6.1 -24.7°
